Location: Lake of the Woods (North-East)
(49.6672°N, 94.8656°W)
Time: 00:22:05
(UTC-05:00)

ISS - All Passes

Search period start: 28 August 2015 00:00
Search period end: 07 September 2015 00:00
Orbit: 399 x 402 km, 51.6° (Epoch: 27 August)

Date Brightness Start Highest point End Pass type
(mag) Time Alt. Az. Time Alt. Az. Time Alt. Az.
28 Aug - 11:37:52 10° SW 11:40:52 34° SSE 11:43:53 10° E daylight
28 Aug - 13:13:53 10° W 13:17:08 73° NNW 13:20:23 10° ENE daylight
28 Aug - 14:50:29 10° WNW 14:53:43 62° N 14:56:57 10° E daylight
28 Aug - 16:26:56 10° WNW 16:30:07 51° SSW 16:33:17 10° SE daylight
28 Aug - 18:04:55 10° WSW 18:05:57 11° SW 18:06:53 10° SSW daylight
29 Aug - 10:44:55 10° SSW 10:47:28 22° SE 10:50:04 10° E daylight
29 Aug - 12:20:19 10° WSW 12:23:34 86° SSE 12:26:50 10° ENE daylight
29 Aug - 13:56:53 10° W 14:00:07 58° N 14:03:19 10° E daylight
29 Aug - 15:33:21 10° WNW 15:36:36 77° SSW 15:39:51 10° ESE daylight
29 Aug - 17:10:16 10° W 17:12:38 18° SW 17:14:57 10° S daylight
30 Aug - 09:52:30 10° SSE 09:54:07 13° SE 09:55:49 10° ESE daylight
30 Aug - 11:26:49 10° SW 11:30:02 60° SSE 11:33:15 10° ENE daylight
30 Aug - 13:03:14 10° W 13:06:28 60° N 13:09:42 10° ENE daylight
30 Aug - 14:39:46 10° WNW 14:43:02 79° NNE 14:46:17 10° ESE daylight
30 Aug - 16:16:21 10° W 16:19:14 29° SSW 16:22:07 10° SSE daylight
31 Aug - 10:33:28 10° SW 10:36:31 38° SSE 10:39:34 10° E daylight
31 Aug - 12:09:34 10° W 12:12:49 70° NNW 12:16:04 10° ENE daylight
31 Aug - 13:46:09 10° WNW 13:49:23 64° N 13:52:38 10° E daylight
31 Aug - 15:22:37 10° WNW 15:25:45 47° SSW 15:28:53 10° SE daylight
01 Sep - 09:40:22 10° SSW 09:43:03 24° SE 09:45:45 10° E daylight
01 Sep - 11:15:54 10° WSW 11:19:10 89° NNW 11:22:26 10° ENE daylight
01 Sep - 12:52:29 10° WNW 12:55:43 58° N 12:58:56 10° E daylight
01 Sep - 14:28:57 10° WNW 14:32:11 71° SSW 14:35:26 10° ESE daylight
01 Sep - 16:05:59 10° W 16:08:11 17° SW 16:10:19 10° S daylight
02 Sep - 08:47:43 10° S 08:49:37 15° SE 08:51:34 10° ESE daylight
02 Sep - 10:22:19 10° WSW 10:25:33 65° SSE 10:28:47 10° ENE daylight
02 Sep - 11:58:46 10° W 12:02:00 59° N 12:05:14 10° ENE daylight
02 Sep - 13:35:17 10° WNW 13:38:33 83° NNE 13:41:49 10° ESE daylight
02 Sep - 15:11:54 10° W 15:14:43 27° SW 15:17:31 10° SSE daylight
03 Sep - 09:28:52 10° SW 09:31:57 42° SSE 09:35:03 10° ENE daylight
03 Sep - 11:05:01 10° W 11:08:16 67° N 11:11:31 10° ENE daylight
03 Sep - 12:41:36 10° WNW 12:44:52 66° N 12:48:06 10° E daylight
03 Sep - 14:18:04 10° WNW 14:21:11 42° SSW 14:24:16 10° SE daylight
04 Sep - 08:35:37 10° SSW 08:38:24 26° SE 08:41:12 10° E daylight
04 Sep - 10:11:18 10° WSW 10:14:33 84° NNW 10:17:49 10° ENE daylight
04 Sep - 11:47:53 10° WNW 11:51:06 59° N 11:54:20 10° E daylight
04 Sep - 13:24:19 10° WNW 13:27:34 66° SSW 13:30:47 10° ESE daylight
04 Sep - 15:01:30 10° W 15:03:30 15° SW 15:05:26 10° S daylight
05 Sep - 07:42:47 10° S 07:44:53 16° SE 07:47:02 10° E daylight
05 Sep - 09:17:37 10° WSW 09:20:51 70° SSE 09:24:06 10° ENE daylight
05 Sep - 10:54:06 10° W 10:57:19 58° N 11:00:33 10° ENE daylight
05 Sep - 12:30:35 10° WNW 12:33:51 88° NNE 12:37:07 10° ESE daylight
05 Sep - 14:07:15 10° W 14:09:59 24° SW 14:12:41 10° SSE daylight
06 Sep - 08:24:03 10° SW 08:27:10 46° SSE 08:30:19 10° ENE daylight
06 Sep - 10:00:17 10° W 10:03:31 65° N 10:06:46 10° ENE daylight
06 Sep - 11:36:50 10° WNW 11:40:06 69° NNE 11:43:20 10° E daylight
06 Sep - 13:13:19 10° W 13:16:23 39° SSW 13:19:26 10° SE daylight
